Погода в Гримсее

Исландия     66°32′48″N   18°00′39″W
темп.,
°C
ветер,
м/с
пор.,
м/с
влажн.,
%
обл.,
%
осадки,
мм/ч
давл.,
гПа
погр.,
м
25 февраля, чт
чт2500:00+1св6694100 1.4 995418
03:00+1св5596100 0.3 997352
06:00+2св5690100 0.6 999470
09:00+2св5588100 0.1 1002435
12:00+2в4486100 0.3 1004470
15:00+2в5482100 0.1 1005569
18:00+2вюв668099 0.1 1006668
21:00+1вюв9108456 0.0 1006528
26 февраля, пт
пт2600:00+1вюв10118062 0.0 1006374
03:00+2вюв111378100 0.3 1003313
06:00+3юв131677100 0.4 999339
09:00+3юв81083100 0.0 996199
12:00+5ююв81383100 0.0 995150
15:00+5ююв5686100 0.0 99548
18:00+5св1287100 0.0 99522
21:00+5ююв2385100 0.2 99626
27 февраля, сб
сб2700:00+5ююз457985 0.4 99732
03:00+4юз91981100 0.0 1000880
06:00+4ююв677868 0.0 1001127
09:00+4юв8875100 0.0 100096
12:00+6ю8977100 0.0 99982
15:00+6юз91581100 0.0 998237
18:00+4юз71190100 0.6 999253
21:00+5ю12186850 0.3 999375
28 февраля, вс
вс2800:00+4юз8187756 0.3 1000841
03:00+4ююз618740 0.0 10001291
06:00+3юз1624730 0.1 10011690
09:00+3юз1924716 0.1 10021809
12:00+3юз13196714 0.1 10031550
15:00+2юз19276761 0.4 10012615
18:00+3юз21267381 0.6 10021506
21:00+3зюз2023760 0.0 10061215
1 марта, пн
пн100:00+3зюз18217430 0.0 10091472
03:00+3зюз17227262 0.0 10101654
06:00+3юз15197461 0.1 10111415
09:00+3юз14187436 0.0 10141318
12:00+3юз13177543 0.0 10161224
15:00+3юз9157633 0.0 10161008
18:00+3юз8157620 0.0 1018949
21:00+3юз9157529 0.0 1019928